Notices

What's New in latest Release from April 7th, 2021:

- Updated Glossary, including Speed of Maximum Gust, and Total Hourly Precipitation

- Updated national and regional climate services offices contacts and prices information

- Addition of station inventory lists for 1981-2010, 1971-2000, and 1961-1990 Normals.

If you haven't already, please take our survey and provide feedback about our website: https://eccc.sondage-survey.ca/f/LanguageSelection.aspx?s=442ca660-fcf1-47c0-95a9-59707d6fd709

Hourly Data Report for December 06, 2019

CARBERRY CS
MANITOBA
Current Station Operator: ECCC - MSC

49°54'20.900" N
99°21'26.800" W
383.50 m
5010547
71170
WZE

Download Data

Hourly Data (December 2019)
Hourly Data Report for December 6, 2019
TIME
LST
Temp Definition
°C
Dew Point Definition
°C
Rel Hum Definition
%
Precip. Amount Definition
mm

Wind Dir Definition
10's deg

Wind Spd Definition
km/h
Visibility Definition
km
Stn Press Definition
kPa
Hmdx Definition


Wind Chill Definition


Weather Definition


00:00 -13.6 -16.1 81 0.0 23 7   97.92   -18 LegendNANA
01:00 -14.4 -16.6 83 0.0 22 7   97.87   -19 LegendNANA
02:00 -16.2 -17.9 87 0.0 22 8   97.82   -22 LegendNANA
03:00 -16.5 -18.2 86 0.0 22 7   97.79   -22 LegendNANA
04:00 -17.4 -19.4 85 0.0 19 6   97.74   -22 LegendNANA
05:00 -16.1 -17.9 86 0.0 19 6   97.68   -21 LegendNANA
06:00 -15.8 -17.8 85 0.0 22 6   97.65   -20 LegendNANA
07:00 -15.6 -17.5 86 0.0 21 4   97.62   -19 LegendNANA
08:00 -14.4 -16.4 85 0.0 20 7   97.56   -19 LegendNANA
09:00 -13.1 -15.3 84 0.0 20 7   97.50   -18 LegendNANA
10:00 -11.8 -14.2 83 0.0 18 8   97.44   -17 LegendNANA
11:00 -10.1 -12.6 81 0.0 19 9   97.38   -15 LegendNANA
12:00 -6.9 -9.7 81 0.0 20 12   97.30   -12 LegendNANA
13:00 -5.4 -8.4 79 0.0 20 11   97.20   -10 LegendNANA
14:00 -4.9 -8.4 77 0.0 24 7   97.17   -8 LegendNANA
15:00 -4.8 -8.2 77 0.0 24 5   97.17   -7 LegendNANA
16:00 -4.8 -7.3 83 0.0 22 5   97.18   -7 LegendNANA
17:00 -6.2 -8.2 86 0.0 29 12   97.19   -11 LegendNANA
18:00 -8.6 -10.2 89 0.0 25 13   97.18   -15 LegendNANA
19:00 -7.9 -9.6 87 0.0 25 9   97.22   -12 LegendNANA
20:00 -7.1 -8.4 91 0.0 25 9   97.18   -11 LegendNANA
21:00 -8.4 -9.2 94 0.0 21 8   97.11   -13 LegendNANA
22:00 -8.9 -9.3 97 0.0 21 11   97.08   -14 LegendNANA
23:00 -10.4 -10.5 100 0.0 27 7   97.09   -14 LegendNANA

Notes on Data Quality.

Legend

  • E = Estimated
  • M = Missing
  • NA = Not Available*
  • [empty] = Indicates an unobserved value
Date modified: